Flag for Norway Weather past 2 weeks in Hammerfest, Norway

Now
34 °F

Light snow. Partly sunny.


Feels Like: 26 °F
Forecast: 34 / 38 °F
Wind: 10 mph from Northeast

Location: Hammerfest

Current Time: Mar 31, 2015 at 3:03:17 PM

Latest Report: Mar 31, 2015 at 1:50 PM


Visibility: N/A

Pressure: 29.03 "Hg

Humidity: 87%

Dew point: 30 °F

Location of HammerfestLocation

Historic Weather in Hammerfest — Graph

°F

Hammerfest temperature yesterday

Maximum temperature yesterday: 37 °F (at 1:50 AM)
Minimum temperature yesterday: 34 °F (at 5:50 AM)
Average temperature yesterday: 36 °F

Past Weeks' High & Low Weather Summary

 TemperatureHumidityPressure
High45 °F (Mar 16, 3:50 PM)100% (Mar 19, 11:50 AM)30.51 "Hg (Mar 19, 11:50 AM)
Low16 °F (Mar 24, 3:50 AM)39% (Mar 16, 4:50 PM)28.97 "Hg (Mar 30, 7:50 AM)
Average30 °F73%29.73 "Hg
* Reported Mar 16 12:50 PM — Mar 31 1:50 PM, Hammerfest, Weather by CustomWeather, © 2015

Note: Actual official high and low records may vary slightly from our data, if they occured in-between our weather recording intervals... More about our weather records

Advertising

Hammerfest weather history for previous 24 hours

 ConditionsComfort  
Time TempWeatherWind HumidityBarometerVisibility
1:50 PM
Tue, Mar 31
34 °FLight snow. Partly sunny.10 mph87%29.03 "HgN/A
12:50 PM34 °FLight snow. Broken clouds.10 mph87%29.06 "HgN/A
11:50 AM34 °FScattered showers. Broken clouds.8 mph87%29.06 "HgN/A
10:50 AM34 °FScattered showers. Broken clouds.6 mph75%29.09 "HgN/A
9:50 AM34 °FSunny.8 mph81%29.09 "Hg10 mi
8:50 AM34 °FPartly sunny.8 mph75%29.09 "HgN/A
7:50 AM32 °FSunny.8 mph80%29.09 "Hg10 mi
6:50 AM30 °FPassing clouds.3 mph80%29.09 "HgN/A
5:50 AM32 °FPassing clouds.2 mph80%29.12 "HgN/A
4:50 AM32 °FPassing clouds.2 mph80%29.12 "HgN/A
3:50 AM34 °FPassing clouds.1 mph81%29.12 "HgN/A
2:50 AM34 °FPassing clouds.2 mph75%29.12 "HgN/A
1:50 AM32 °FPassing clouds.No wind80%29.12 "HgN/A
12:50 AM32 °FPassing clouds.1 mph80%29.09 "HgN/A
11:50 PM
Mon, Mar 30
34 °FPassing clouds.3 mph81%29.09 "HgN/A
10:50 PM34 °FPassing clouds.2 mph81%29.09 "HgN/A
9:50 PM34 °FPassing clouds.2 mph81%29.06 "HgN/A
8:50 PM36 °FPassing clouds.2 mph75%29.03 "HgN/A
7:50 PM36 °FBroken clouds.6 mph81%29.03 "HgN/A
6:50 PM36 °FBroken clouds.10 mph81%29.03 "HgN/A
5:50 PM36 °FBroken clouds.13 mph81%29.00 "HgN/A
4:50 PM36 °FBroken clouds.13 mph81%29.00 "HgN/A
3:50 PM37 °FBroken clouds.12 mph70%29.00 "HgN/A
Weather by CustomWeather, © 2015

See weather overviewHow to use our weather pages